| time (UTC) | temp C | wind direction | speed KPH | gust KPH | rain 1hr cm | rain 24hr cm | rain mn cm | humidity % | barometer mb |
| 20260904031601 | 26 | 0 | 0.0 | 1.6 | 0.00 | 0.05 | 0.00 | 86 | 1012.1 |
| 20260904030110 | 26 | 0 | 0.0 | 1.6 | 0.00 | 0.05 | 0.00 | 85 | 1012.0 |
| 20260904024609 | 26 | 0 | 0.0 | 0.0 | 0.00 | 0.51 | 0.00 | 85 | 1012.0 |
| 20260904023102 | 26 | 0 | 0.0 | 3.2 | 0.00 | 0.51 | 0.00 | 85 | 1011.6 |
| 20260904021604 | 26 | 0 | 0.0 | 1.6 | 0.00 | 0.51 | 0.00 | 84 | 1011.6 |
| 20260904020100 | 26 | 0 | 0.0 | 4.8 | 0.00 | 0.51 | 0.00 | 84 | 1011.1 |
| 20260904014615 | 26 | 0 | 0.0 | 3.2 | 0.00 | 0.51 | 0.00 | 84 | 1011.0 |
| 20260904013106 | 26 | 113 | 0.0 | 3.2 | 0.00 | 0.51 | 0.00 | 83 | 1010.9 |
| 20260904011603 | 26 | 0 | 0.0 | 4.8 | 0.00 | 0.51 | 0.00 | 83 | 1010.8 |
| 20260904010100 | 26 | 0 | 0.0 | 1.6 | 0.00 | 0.51 | 0.00 | 83 | 1010.7 |
| 20260904004604 | 26 | 0 | 0.0 | 1.6 | 0.00 | 0.51 | 0.00 | 83 | 1010.7 |
| 20260904003105 | 26 | 0 | 0.0 | 1.6 | 0.00 | 0.51 | 0.00 | 83 | 1010.4 |
| 20260904001602 | 27 | 0 | 0.0 | 1.6 | 0.00 | 0.51 | 0.00 | 83 | 1010.5 |
| 20260904000059 | 27 | 0 | 0.0 | 3.2 | 0.00 | 0.51 | 0.00 | 83 | 1010.8 |
| 20260903234616 | 27 | 0 | 0.0 | 0.0 | 0.00 | 0.51 | 0.00 | 82 | 1010.6 |
| 20260903233106 | 27 | 0 | 0.0 | 3.2 | 0.00 | 0.51 | 0.00 | 82 | 1010.7 |
| 20260903231607 | 27 | 0 | 0.0 | 3.2 | 0.00 | 0.51 | 0.00 | 82 | 1010.8 |
| 20260903230106 | 27 | 0 | 0.0 | 3.2 | 0.00 | 0.51 | 0.00 | 81 | 1010.9 |
| 20260903224602 | 27 | 0 | 0.0 | 3.2 | 0.00 | 0.51 | 0.00 | 81 | 1011.0 |
| 20260903223103 | 27 | 0 | 0.0 | 4.8 | 0.00 | 0.51 | 0.00 | 81 | 1011.0 |
| 20260903221601 | 28 | 145 | 1.6 | 9.7 | 0.00 | 0.51 | 0.00 | 80 | 1011.2 |
| 20260903220122 | 28 | 94 | 1.6 | 6.4 | 0.00 | 0.51 | 0.00 | 80 | 1011.0 |
| 20260903214605 | 28 | 76 | 1.6 | 6.4 | 0.00 | 0.51 | 0.00 | 81 | 1011.6 |
| 20260903213112 | 28 | 91 | 1.6 | 4.8 | 0.00 | 0.51 | 0.00 | 84 | 1011.7 |
| 20260903211605 | 28 | 76 | 0.0 | 4.8 | 0.00 | 0.51 | 0.00 | 84 | 1011.9 |
| 20260903210113 | 28 | 360 | 1.6 | 4.8 | 0.00 | 0.51 | 0.00 | 84 | 1012.0 |
| 20260903204603 | 28 | 360 | 1.6 | 6.4 | 0.00 | 0.51 | 0.00 | 83 | 1011.9 |
| 20260903203104 | 28 | 72 | 1.6 | 6.4 | 0.00 | 0.51 | 0.00 | 84 | 1011.8 |
| 20260903201601 | 28 | 91 | 1.6 | 6.4 | 0.00 | 0.51 | 0.00 | 84 | 1012.1 |
| 20260903200104 | 27 | 88 | 3.2 | 8.0 | 0.00 | 0.51 | 0.00 | 83 | 1012.4 |
| 20260903194602 | 27 | 76 | 3.2 | 8.0 | 0.00 | 0.51 | 0.00 | 82 | 1012.7 |
| 20260903193100 | 27 | 78 | 3.2 | 12.9 | 0.00 | 0.51 | 0.00 | 82 | 1012.8 |
| 20260903191604 | 27 | 64 | 3.2 | 8.0 | 0.00 | 0.51 | 0.00 | 83 | 1012.9 |
| 20260903184601 | 27 | 66 | 3.2 | 8.0 | 0.00 | 0.51 | 0.00 | 85 | 1013.3 |
| 20260903183105 | 26 | 360 | 1.6 | 6.4 | 0.00 | 0.51 | 0.00 | 85 | 1013.2 |
| 20260903181604 | 26 | 65 | 3.2 | 6.4 | 0.00 | 0.51 | 0.00 | 85 | 1013.2 |
| 20260903174601 | 26 | 78 | 0.0 | 6.4 | 0.00 | 0.51 | 0.00 | 85 | 1013.7 |
| 20260903173100 | 27 | 0 | 0.0 | 3.2 | 0.00 | 0.51 | 0.00 | 87 | 1014.0 |
| 20260903171626 | 26 | 0 | 0.0 | 3.2 | 0.00 | 0.51 | 0.00 | 86 | 1014.3 |
| 20260903170100 | 26 | 0 | 0.0 | 1.6 | 0.00 | 0.51 | 0.00 | 87 | 1014.4 |
| 20260903164605 | 26 | 0 | 0.0 | 6.4 | 0.00 | 0.51 | 0.00 | 88 | 1013.9 |
| 20260903163059 | 26 | 0 | 0.0 | 3.2 | 0.00 | 0.51 | 0.00 | 90 | 1013.8 |
| 20260903161600 | 26 | 0 | 0.0 | 3.2 | 0.00 | 0.51 | 0.00 | 91 | 1014.0 |
| 20260903160059 | 26 | 0 | 0.0 | 3.2 | 0.00 | 0.51 | 0.00 | 92 | 1014.0 |
| 20260903154601 | 26 | 71 | 1.6 | 4.8 | 0.00 | 0.51 | 0.00 | 93 | 1013.9 |
| 20260903153058 | 26 | 71 | 1.6 | 6.4 | 0.00 | 0.51 | 0.00 | 94 | 1013.9 |
| 20260903151604 | 26 | 85 | 1.6 | 6.4 | 0.00 | 0.51 | 0.00 | 95 | 1014.0 |
| 20260903144601 | 26 | 76 | 1.6 | 4.8 | 0.00 | 0.51 | 0.00 | 95 | 1013.8 |
| 20260903143112 | 26 | 0 | 0.0 | 1.6 | 0.00 | 0.51 | 0.00 | 95 | 1013.8 |
| 20260903141604 | 26 | 0 | 0.0 | 6.4 | 0.00 | 0.51 | 0.00 | 95 | 1013.7 |
| 20260903140106 | 26 | 67 | 1.6 | 4.8 | 0.00 | 0.51 | 0.00 | 95 | 1013.4 |
| 20260903134604 | 26 | 0 | 0.0 | 0.0 | 0.00 | 0.51 | 0.00 | 95 | 1013.3 |
| 20260903133111 | 26 | 0 | 0.0 | 0.0 | 0.00 | 0.51 | 0.00 | 95 | 1013.4 |
| 20260903131611 | 26 | 0 | 0.0 | 3.2 | 0.00 | 0.51 | 0.00 | 95 | 1013.3 |
| 20260903130121 | 26 | 0 | 0.0 | 1.6 | 0.00 | 0.51 | 0.00 | 95 | 1013.1 |
| 20260903124603 | 26 | 0 | 0.0 | 1.6 | 0.00 | 0.51 | 0.00 | 95 | 1013.1 |
| 20260903123102 | 26 | 0 | 0.0 | 1.6 | 0.00 | 0.51 | 0.00 | 95 | 1012.7 |
| 20260903121604 | 26 | 0 | 0.0 | 1.6 | 0.00 | 0.51 | 0.00 | 95 | 1012.3 |
| 20260903120059 | 25 | 0 | 0.0 | 1.6 | 0.00 | 0.51 | 0.00 | 95 | 1012.4 |
| 20260903114601 | 25 | 0 | 0.0 | 1.6 | 0.00 | 0.51 | 0.00 | 95 | 1012.2 |
| 20260903113104 | 25 | 0 | 0.0 | 1.6 | 0.00 | 0.51 | 0.00 | 95 | 1012.2 |
| 20260903111608 | 25 | 0 | 0.0 | 1.6 | 0.00 | 0.51 | 0.00 | 95 | 1012.3 |
| 20260903110103 | 26 | 0 | 0.0 | 1.6 | 0.00 | 0.51 | 0.00 | 95 | 1012.2 |
| 20260903104604 | 26 | 0 | 0.0 | 0.0 | 0.00 | 0.51 | 0.00 | 95 | 1011.9 |
| 20260903103104 | 26 | 0 | 0.0 | 1.6 | 0.00 | 0.51 | 0.00 | 95 | 1012.0 |
| 20260903101604 | 26 | 0 | 0.0 | 1.6 | 0.00 | 0.51 | 0.00 | 95 | 1012.2 |
| 20260903094610 | 26 | 0 | 0.0 | 0.0 | 0.00 | 0.51 | 0.00 | 95 | 1012.1 |
| 20260903093119 | 26 | 0 | 0.0 | 3.2 | 0.00 | 0.51 | 0.00 | 94 | 1012.2 |
| 20260903091613 | 26 | 0 | 0.0 | 1.6 | 0.00 | 0.51 | 0.00 | 94 | 1012.2 |
| 20260903084601 | 26 | 0 | 0.0 | 1.6 | 0.00 | 0.51 | 0.00 | 94 | 1012.1 |
| 20260903083109 | 25 | 0 | 0.0 | 0.0 | 0.00 | 0.51 | 0.00 | 94 | 1012.2 |
| 20260903081603 | 25 | 0 | 0.0 | 0.0 | 0.00 | 0.51 | 0.00 | 94 | 1012.3 |
| 20260903080108 | 25 | 0 | 0.0 | 0.0 | 0.00 | 0.51 | 0.00 | 94 | 1012.2 |
| 20260903074601 | 25 | 0 | 0.0 | 1.6 | 0.00 | 0.51 | 0.00 | 94 | 1011.7 |
| 20260903073101 | 25 | 0 | 0.0 | 3.2 | 0.00 | 0.51 | 0.00 | 94 | 1011.9 |
| 20260903071605 | 25 | 0 | 0.0 | 1.6 | 0.00 | 0.51 | 0.00 | 94 | 1011.9 |
| 20260903070105 | 25 | 0 | 0.0 | 1.6 | 0.00 | 0.51 | 0.00 | 94 | 1011.9 |
| 20260903064601 | 25 | 0 | 0.0 | 1.6 | 0.00 | 0.51 | 0.00 | 94 | 1012.0 |
| 20260903063104 | 25 | 0 | 0.0 | 0.0 | 0.00 | 0.51 | 0.00 | 94 | 1012.0 |
| 20260903061608 | 25 | 0 | 0.0 | 1.6 | 0.00 | 0.51 | 0.00 | 93 | 1012.2 |
| 20260903060109 | 25 | 0 | 0.0 | 3.2 | 0.00 | 0.51 | 0.00 | 93 | 1012.1 |
| 20260903054607 | 25 | 0 | 0.0 | 3.2 | 0.00 | 0.51 | 0.00 | 93 | 1012.0 |
| 20260903053104 | 25 | 0 | 0.0 | 3.2 | 0.00 | 0.51 | 0.00 | 93 | 1012.1 |
| 20260903051605 | 24 | 0 | 0.0 | 3.2 | 0.00 | 0.51 | 0.00 | 93 | 1012.4 |
| 20260903050104 | 24 | 0 | 0.0 | 3.2 | 0.00 | 0.51 | 0.00 | 93 | 1012.5 |
| 20260903044559 | 24 | 128 | 0.0 | 3.2 | 0.00 | 0.51 | 0.51 | 92 | 1012.7 |
| 20260903043100 | 24 | 0 | 0.0 | 3.2 | 0.03 | 0.51 | 0.51 | 92 | 1012.5 |
| 20260903041616 | 24 | 0 | 0.0 | 4.8 | 0.03 | 0.51 | 0.51 | 91 | 1012.7 |
| 20260903034604 | 24 | 0 | 0.0 | 3.2 | 0.15 | 0.51 | 0.51 | 91 | 1012.8 |
| 20260903033104 | 24 | 115 | 0.0 | 6.4 | 0.33 | 0.48 | 0.48 | 90 | 1012.8 |